Location: Observatoire
(46.1952°N, 5.3391°E)
Time: 03:31:34
(UTC+01:00)

Courier 1B - All Passes

Search period start: 07 February 2026 00:00
Search period end: 17 February 2026 00:00
Orbit: 962 x 1208 km, 28.3° (Epoch: 6 February)

Date Brightness Start Highest point End Pass type
(mag) Time Alt. Az. Time Alt. Az. Time Alt. Az.
7 Feb - 01:02:47 10° SSW 01:07:08 16° SSE 01:11:25 10° SE night (unlit)
7 Feb - 02:55:07 10° SW 03:00:06 19° S 03:04:56 10° SE night (unlit)
7 Feb - 04:49:44 10° SW 04:52:56 13° SSW 04:56:04 10° S visible
8 Feb - 00:09:42 10° SSW 00:13:27 14° SSE 00:17:10 10° SE night (unlit)
8 Feb - 02:01:17 10° SW 02:06:24 19° S 02:11:23 10° SE night (unlit)
8 Feb - 03:55:10 10° SW 03:59:19 16° SSW 04:03:22 10° SSE visible
8 Feb - 23:17:08 10° S 23:19:46 12° SSE 23:22:23 10° SE night (unlit)
9 Feb - 01:07:36 10° SW 01:12:42 19° S 01:17:41 10° SE night (unlit)
9 Feb - 03:00:54 10° SW 03:05:40 18° S 03:10:18 10° SSE night (unlit)
10 Feb - 00:14:06 10° SSW 00:18:58 18° S 00:23:47 10° SE night (unlit)
10 Feb - 02:06:51 10° SW 02:11:58 19° S 02:16:59 10° SE night (unlit)
10 Feb - 04:02:04 10° SW 04:04:49 12° SSW 04:07:30 10° S visible
10 Feb - 23:20:50 10° SSW 23:25:15 16° SSE 23:29:39 10° SE night (unlit)
11 Feb - 01:12:56 10° SW 01:18:15 20° S 01:23:28 10° SE night (unlit)
11 Feb - 03:07:14 10° SW 03:11:11 15° SSW 03:15:04 10° SSE night (unlit)
11 Feb - 22:27:55 10° S 22:31:33 14° SSE 22:35:12 10° SE night (unlit)
12 Feb - 00:19:12 10° SW 00:24:31 20° S 00:29:46 10° SE night (unlit)
12 Feb - 02:12:50 10° SW 02:17:31 17° SSW 02:22:07 10° SSE night (unlit)
12 Feb - 21:35:44 10° S 21:37:54 11° SSE 21:40:04 10° SE visible
12 Feb - 23:25:38 10° SW 23:30:46 19° S 23:35:55 10° SE night (unlit)
13 Feb - 01:18:42 10° SW 01:23:48 19° S 01:28:50 10° SSE night (unlit)
13 Feb - 03:14:57 10° SW 03:16:38 11° SSW 03:18:19 10° S night (unlit)
13 Feb - 22:32:16 10° SSW 22:37:03 18° SSE 22:41:51 10° SE night (unlit)
14 Feb - 00:24:45 10° SW 00:30:04 20° S 00:35:21 10° SE night (unlit)
14 Feb - 02:19:30 10° SW 02:23:00 14° SSW 02:26:27 10° S night (unlit)
14 Feb - 21:39:11 10° SSW 21:43:21 15° SSE 21:47:33 10° SE visible
14 Feb - 23:30:59 10° SW 23:36:19 20° S 23:41:41 10° SE night (unlit)
15 Feb - 01:24:56 10° SW 01:29:19 16° SSW 01:33:40 10° SSE night (unlit)
15 Feb - 20:46:33 10° S 20:49:41 13° SSE 20:52:51 10° SE visible
15 Feb - 22:37:22 10° SW 22:42:35 20° S 22:47:51 10° SE visible
16 Feb - 00:30:44 10° SW 00:35:36 18° S 00:40:29 10° SSE night (unlit)
16 Feb - 19:55:45 10° SSE 19:56:04 10° SSE 19:56:22 10° SSE visible
16 Feb - 21:43:58 10° SSW 21:48:51 18° S 21:53:50 10° SE visible
16 Feb - 23:36:44 10° SW 23:41:53 19° S 23:47:03 10° SE night (unlit)
